MOVE-II (43780 NORAD) Tracking and Keplerian Element Data

This shows tracking and keplerian element data for the satellite.

Feedback or suggestion? Click here.




ElementValue
Catalog43780
NameMOVE-II
Epoch Orbit662
Epoch Day17.19766039
Epoch Year2019
RAAN90.8929
Inclination97.7618
Eccentricity0.0015018
Argument of Perigee119.0183
Mean Anonmoly241.2544
Mean Motion14.9488744
Decay Rate4.39E-06
L11 43780U 18099Y 19017.19766039 .00000439 00000-0 45511-4 0 9994
L22 43780 97.7618 90.8929 0015018 119.0183 241.2544 14.94887440 6622

Live tracking and technical data element details for MOVE-II (NORAD 43780). MOVE-II can be tracked NOW for your location showing map with azimuth and elevation plus other details from your city location.

Track the satellite on the map from your city or location and see movement details for azimuth, elevation, latitude, longitude, range, height, and movement on the map or in text.







IsCatalogInMostPopularTable: catalog: 43780, numindb: 18
Update: records affected: 1



GetName: 43780 MOVE-II

Hit Count: updated at: Wed, 23 Jan 2019 03:56:49 GMT